Powrót do katalogu

POEM 2

AktywnyNaukaVLEO
NORAD 56308·PAYLOAD·🇮🇳 India

Wystrzelony Apr 22, 2023 z Satish Dhawan Space Centre

Loading…

Następne Przeloty (najbliższe 24 godziny)

TLE

ŚwieżeSource: Space-Track

Epoka: Sep 13, 2026, 18:56 UTC

1 56308U 23057A   26256.78928821  .00001837  00000-0  10025-3 0  9995
2 56308   9.8893 337.9247 0020017 113.4349 246.7968 14.95188292185545

Śledź POEM 2 w czasie rzeczywistym z AllMySat

Download on the App Store